Time,TemperatureF,DewpointF,PressureIn,WindDirection,WindDirectionDegrees,WindSpeedMPH,WindSpeedGustMPH,Humidity,HourlyPrecipIn,Conditions,Clouds,dailyrainin,SoftwareType,DateUTC
2013-10-14 00:23:00,50.0,48.0,30.25,North,5,0.0,-999.0,92,-99.99,,,-99.99,,2013-10-14 05:23:00,
2013-10-14 00:43:00,49.0,47.0,30.24,North,5,0.0,-999.0,92,-99.99,,,-99.99,,2013-10-14 05:43:00,
2013-10-14 00:52:00,49.0,47.0,30.24,North,5,0.0,-999.0,93,-99.99,,,-99.99,,2013-10-14 05:52:00,
2013-10-14 01:12:00,49.0,47.0,30.24,North,5,0.0,-999.0,93,-99.99,,,-99.99,,2013-10-14 06:12:00,
2013-10-14 01:22:00,48.0,46.0,30.24,North,5,0.0,-999.0,93,-99.99,,,-99.99,,2013-10-14 06:22:00,
2013-10-14 01:52:00,48.0,46.0,30.24,North,5,0.0,-999.0,93,-99.99,,,-99.99,,2013-10-14 06:52:00,
2013-10-14 02:11:00,48.0,46.0,30.24,North,5,0.0,-999.0,93,-99.99,,,-99.99,,2013-10-14 07:11:00,
2013-10-14 02:22:00,48.0,46.0,30.24,North,5,0.0,-999.0,93,-99.99,,,-99.99,,2013-10-14 07:22:00,
2013-10-14 02:42:00,48.0,46.0,30.23,North,5,0.0,-999.0,94,-99.99,,,-99.99,,2013-10-14 07:42:00,
2013-10-14 02:52:00,48.0,46.0,30.24,North,5,0.0,-999.0,94,-99.99,,,-99.99,,2013-10-14 07:52:00,
2013-10-14 03:12:00,47.0,45.0,30.23,North,5,0.0,-999.0,93,-99.99,,,-99.99,,2013-10-14 08:12:00,
2013-10-14 03:22:00,47.0,45.0,30.23,North,5,0.0,-999.0,93,-99.99,,,-99.99,,2013-10-14 08:22:00,
2013-10-14 03:42:00,47.0,45.0,30.23,North,5,0.0,-999.0,93,-99.99,,,-99.99,,2013-10-14 08:42:00,
2013-10-14 03:52:00,47.0,45.0,30.22,North,5,0.0,-999.0,94,-99.99,,,-99.99,,2013-10-14 08:52:00,
2013-10-14 04:11:00,47.0,45.0,30.22,North,5,0.0,-999.0,94,-99.99,,,-99.99,,2013-10-14 09:11:00,
2013-10-14 04:22:00,47.0,45.0,30.22,North,5,0.0,-999.0,93,-99.99,,,-99.99,,2013-10-14 09:22:00,
2013-10-14 04:43:00,47.0,45.0,30.21,North,5,0.0,-999.0,94,-99.99,,,-99.99,,2013-10-14 09:43:00,
2013-10-14 04:53:00,47.0,45.0,30.21,North,5,0.0,-999.0,94,-99.99,,,-99.99,,2013-10-14 09:53:00,
2013-10-14 05:12:00,46.0,44.0,30.22,North,5,0.0,-999.0,94,-99.99,,,-99.99,,2013-10-14 10:12:00,
2013-10-14 05:23:00,46.0,44.0,30.22,North,5,0.0,-999.0,94,-99.99,,,-99.99,,2013-10-14 10:23:00,
2013-10-14 05:42:00,46.0,44.0,30.21,North,5,0.0,-999.0,94,-99.99,,,-99.99,,2013-10-14 10:42:00,
2013-10-14 05:53:00,46.0,44.0,30.20,North,5,0.0,-999.0,94,-99.99,,,-99.99,,2013-10-14 10:53:00,
2013-10-14 06:22:00,46.0,44.0,30.20,North,5,0.0,-999.0,94,-99.99,,,-99.99,,2013-10-14 11:22:00,
2013-10-14 06:42:00,46.0,44.0,30.20,North,5,0.0,-999.0,94,-99.99,,,-99.99,,2013-10-14 11:42:00,
2013-10-14 06:52:00,46.0,44.0,30.21,North,5,0.0,-999.0,94,-99.99,,,-99.99,,2013-10-14 11:52:00,
2013-10-14 07:12:00,46.0,44.0,30.20,North,5,0.0,-999.0,94,-99.99,,,-99.99,,2013-10-14 12:12:00,
2013-10-14 07:22:00,46.0,44.0,30.21,North,5,0.0,-999.0,94,-99.99,,,-99.99,,2013-10-14 12:22:00,
2013-10-14 07:42:00,47.0,45.0,30.21,North,5,0.0,-999.0,94,-99.99,,,-99.99,,2013-10-14 12:42:00,
2013-10-14 07:52:00,47.0,45.0,30.21,North,5,0.0,-999.0,94,-99.99,,,-99.99,,2013-10-14 12:52:00,
2013-10-14 08:11:00,47.0,46.0,30.20,North,5,0.0,-999.0,95,-99.99,,,-99.99,,2013-10-14 13:11:00,
2013-10-14 08:21:00,47.0,45.0,30.21,North,5,0.0,-999.0,94,-99.99,,,-99.99,,2013-10-14 13:21:00,
2013-10-14 08:42:00,48.0,47.0,30.21,North,5,0.0,-999.0,95,-99.99,,,-99.99,,2013-10-14 13:42:00,
2013-10-14 08:52:00,49.0,48.0,30.22,North,5,0.0,-999.0,95,-99.99,,,-99.99,,2013-10-14 13:52:00,
2013-10-14 09:11:00,50.0,49.0,30.22,North,5,0.0,-999.0,95,-99.99,,,-99.99,,2013-10-14 14:11:00,
2013-10-14 09:22:00,50.0,49.0,30.22,North,5,0.0,-999.0,95,-99.99,,,-99.99,,2013-10-14 14:22:00,
2013-10-14 09:42:00,50.0,49.0,30.22,North,5,0.0,-999.0,95,-99.99,,,-99.99,,2013-10-14 14:42:00,
2013-10-14 11:53:00,65.0,53.0,30.17,ENE,58,0.0,-999.0,64,-99.99,,,-99.99,,2013-10-14 16:53:00,
2013-10-14 12:12:00,66.0,53.0,30.17,ENE,76,0.0,-999.0,62,-99.99,,,-99.99,,2013-10-14 17:12:00,
2013-10-14 12:22:00,66.0,53.0,30.16,ENE,76,0.0,-999.0,63,-99.99,,,-99.99,,2013-10-14 17:22:00,
2013-10-14 12:42:00,67.0,54.0,30.14,ENE,76,0.0,-999.0,62,-99.99,,,-99.99,,2013-10-14 17:42:00,
2013-10-14 12:52:00,67.0,54.0,30.13,ENE,76,0.0,-999.0,63,-99.99,,,-99.99,,2013-10-14 17:52:00,
2013-10-14 13:12:00,68.0,56.0,30.12,ENE,76,0.0,-999.0,66,-99.99,,,-99.99,,2013-10-14 18:12:00,
2013-10-14 13:22:00,68.0,56.0,30.11,ENE,62,0.0,-999.0,65,-99.99,,,-99.99,,2013-10-14 18:22:00,
2013-10-14 13:42:00,69.0,57.0,30.10,ENE,68,0.0,-999.0,65,-99.99,,,-99.99,,2013-10-14 18:42:00,
2013-10-14 13:52:00,69.0,57.0,30.09,ENE,68,0.0,-999.0,66,-99.99,,,-99.99,,2013-10-14 18:52:00,
2013-10-14 14:11:00,69.0,58.0,30.08,ENE,68,0.0,-999.0,68,-99.99,,,-99.99,,2013-10-14 19:11:00,
2013-10-14 14:22:00,69.0,58.0,30.07,ENE,68,0.0,-999.0,69,-99.99,,,-99.99,,2013-10-14 19:22:00,
2013-10-14 14:42:00,70.0,59.0,30.07,ENE,68,0.0,-999.0,69,-99.99,,,-99.99,,2013-10-14 19:42:00,
2013-10-14 14:52:00,70.0,60.0,30.06,ENE,68,0.0,-999.0,70,-99.99,,,-99.99,,2013-10-14 19:52:00,
2013-10-14 15:11:00,70.0,61.0,30.05,ENE,69,0.0,-999.0,72,-99.99,,,-99.99,,2013-10-14 20:11:00,
2013-10-14 15:22:00,70.0,61.0,30.05,ENE,69,0.0,-999.0,72,-99.99,,,-99.99,,2013-10-14 20:22:00,
2013-10-14 15:43:00,69.0,60.0,30.04,ENE,69,0.0,-999.0,73,-99.99,,,-99.99,,2013-10-14 20:43:00,
2013-10-14 15:52:00,70.0,61.0,30.04,ENE,76,0.0,-999.0,73,-99.99,,,-99.99,,2013-10-14 20:52:00,
2013-10-14 16:02:00,70.0,61.0,30.04,ENE,76,0.0,-999.0,73,-99.99,,,-99.99,,2013-10-14 21:02:00,
2013-10-14 16:22:00,70.0,61.0,30.03,NNW,340,0.0,-999.0,73,-99.99,,,-99.99,,2013-10-14 21:22:00,
2013-10-14 16:44:00,70.0,61.0,30.02,NNW,338,0.0,-999.0,74,-99.99,,,-99.99,,2013-10-14 21:44:00,
2013-10-14 16:54:00,69.0,60.0,30.02,NNW,343,0.0,-999.0,74,-99.99,,,-99.99,,2013-10-14 21:54:00,
2013-10-14 17:24:00,69.0,63.0,30.02,NW,323,0.0,-999.0,80,-99.99,,,-99.99,,2013-10-14 22:24:00,
2013-10-14 17:43:00,68.0,62.0,30.02,WNW,283,0.0,-999.0,80,-99.99,,,-99.99,,2013-10-14 22:43:00,
2013-10-14 17:54:00,68.0,62.0,30.02,WNW,283,0.0,-999.0,81,-99.99,,,-99.99,,2013-10-14 22:54:00,
2013-10-14 18:22:00,66.0,62.0,30.02,WNW,283,0.0,-999.0,86,-99.99,,,-99.99,,2013-10-14 23:22:00,
2013-10-14 18:52:00,65.0,61.0,30.02,WNW,283,0.0,-999.0,88,-99.99,,,-99.99,,2013-10-14 23:52:00,
2013-10-14 19:12:00,64.0,61.0,30.02,WNW,283,0.0,-999.0,89,-99.99,,,-99.99,,2013-10-15 00:12:00,
2013-10-14 19:22:00,64.0,61.0,30.02,WNW,283,0.0,-999.0,91,-99.99,,,-99.99,,2013-10-15 00:22:00,
2013-10-14 19:42:00,63.0,61.0,30.02,WNW,283,0.0,-999.0,92,-99.99,,,-99.99,,2013-10-15 00:42:00,
2013-10-14 19:52:00,63.0,61.0,30.02,WNW,283,0.0,-999.0,92,-99.99,,,-99.99,,2013-10-15 00:52:00,
2013-10-14 20:12:00,63.0,61.0,30.02,WNW,283,0.0,-999.0,93,-99.99,,,-99.99,,2013-10-15 01:12:00,
2013-10-14 20:22:00,63.0,61.0,30.02,WNW,283,0.0,-999.0,92,-99.99,,,-99.99,,2013-10-15 01:22:00,
2013-10-14 20:42:00,63.0,61.0,30.02,WNW,283,0.0,-999.0,93,-99.99,,,-99.99,,2013-10-15 01:42:00,
2013-10-14 20:52:00,62.0,60.0,30.02,WNW,283,0.0,-999.0,93,-99.99,,,-99.99,,2013-10-15 01:52:00,
2013-10-14 21:12:00,62.0,60.0,30.01,WNW,283,0.0,-999.0,93,-99.99,,,-99.99,,2013-10-15 02:12:00,
2013-10-14 21:22:00,62.0,60.0,30.02,WNW,283,0.0,-999.0,93,-99.99,,,-99.99,,2013-10-15 02:22:00,
2013-10-14 21:52:00,62.0,60.0,30.02,WNW,283,0.0,-999.0,93,-99.99,,,-99.99,,2013-10-15 02:52:00,
2013-10-14 22:12:00,62.0,60.0,30.03,WNW,283,0.0,-999.0,93,-99.99,,,-99.99,,2013-10-15 03:12:00,
2013-10-14 22:23:00,62.0,60.0,30.02,WNW,283,0.0,-999.0,94,-99.99,,,-99.99,,2013-10-15 03:23:00,
2013-10-14 22:44:00,62.0,60.0,30.01,WNW,283,0.0,-999.0,94,-99.99,,,-99.99,,2013-10-15 03:44:00,
2013-10-14 22:55:00,61.0,59.0,30.02,WNW,283,0.0,-999.0,94,-99.99,,,-99.99,,2013-10-15 03:55:00,
2013-10-14 23:14:00,61.0,59.0,30.01,WNW,283,0.0,-999.0,94,-99.99,,,-99.99,,2013-10-15 04:14:00,
2013-10-14 23:24:00,61.0,59.0,30.00,WNW,283,0.0,-999.0,94,-99.99,,,-99.99,,2013-10-15 04:24:00,
2013-10-14 23:43:00,61.0,59.0,30.00,WNW,283,0.0,-999.0,94,-99.99,,,-99.99,,2013-10-15 04:43:00,
2013-10-14 23:54:00,61.0,59.0,29.99,WNW,283,0.0,-999.0,94,-99.99,,,-99.99,,2013-10-15 04:54:00,